Regional Weather Roundup
Issued by NWS

Home | Current Version | Previous Version | Graphics & Text | Print | Product List | Glossary On
Versions: 1 2 3 4 5 6 7 8 9 10 11 12 13 14 15 16 17 18 19 20 21 22 23 24 25 26 27 28 29 30 31 32 33 34 35 36 37 38 39 40 41 42 43 44 45 46 47 48 49 50
000
ASUS44 KMEG 241800
RWRTN
TENNESSEE HOURLY STATE WEATHER ROUNDUP
NATIONAL WEATHER SERVICE MEMPHIS TN
100 PM CDT THU APR 24 2014

TNZ002-004-019-021-049-052-054-088>092-241900-
WEST TENNESSEE

CITY           SKY/WX    TMP DP  RH WIND       PRES   REMARKS
MEMPHIS INTL   CLOUDY    78  52  40 S15       29.88F
NWS MEMPHIS      N/A     78 N/A N/A MISG        N/A
JACKSON        FAIR      77  48  35 SW10G21   29.88F
DYERSBURG      PTSUNNY   75  45  33 SW9G17    29.89S
UNION CITY     SUNNY     75  46  35 SW10      29.87S
LEXINGTON      SUNNY     79  46  31 S16       29.88F
$$

TNZ008-025-027-028-033-062-065-066-241900-
NORTH MIDDLE TENNESSEE

CITY           SKY/WX    TMP DP  RH WIND       PRES   REMARKS
NASHVILLE      CLOUDY    77  38  24 S8G17     29.92F
CLARKSVILLE    SUNNY     75  40  28 S14G20    29.89F
CROSSVILLE     SUNNY     70  30  22 S8        29.99F
$$

TNZ061-075-076-078-094-096-097-241900-
SOUTH MIDDLE TENNESSEE

CITY           SKY/WX    TMP DP  RH WIND       PRES   REMARKS
TULLAHOMA      SUNNY     75  39  27 SW13      29.95F
WINCHESTER     SUNNY     77  43  29 SW9       29.95F
COLUMBIA       SUNNY     79  57  47 SW14      29.91F
$$

TNZ017-018-042-046-047-241900-
NORTHEAST TENNESSEE

CITY           SKY/WX    TMP DP  RH WIND       PRES   REMARKS
TRI CITIES     MOSUNNY   73  29  19 CALM      29.99F
ELIZABETHTON     N/A     73  34  23 CALM      29.99F
$$

TNZ012-013-036-069-073-074-241900-
CENTRAL EAST TENNESSEE

CITY           SKY/WX    TMP DP  RH WIND       PRES   REMARKS
KNOXVILLE      PTSUNNY   71  37  28 CALM      29.97F
OAK RIDGE      SUNNY     74  33  22 W7        29.98F
$$

TNZ083-085-099-241900-
SOUTHEAST TENNESSEE

CITY           SKY/WX    TMP DP  RH WIND       PRES   REMARKS
CHATTANOOGA    PTSUNNY   74  37  26 S8        29.97F
$$

SKY/WX REPORTED AS FAIR MEANS FEW OR NO CLOUDS BELOW
12 THOUSAND FEET.




USA.gov is the U.S. government's official web portal to all federal, state and local government web resources and services.